Hourly Weather Roundup
Issued by NWS Central Illinois

Home | Current Version | Previous Version | Text Only | Print | Product List | Glossary On
Versions: 1 2 3 4 5 6 7 8 9 10 11 12 13 14 15 16 17 18 19 20 21 22 23 24 25 26 27 28 29 30 31 32 33 34 35 36 37 38 39 40 41 42 43 44 45 46 47 48 49 50
000
NZUS43 KILX 260210
HWRILX

AREA WEATHER ROUNDUP
NATIONAL WEATHER SERVICE, LINCOLN IL
900 PM CDT WED MAY 25 2016


CITY           SKY/WX    TMP DP  RH WIND       PRES   REMARKS
BLOOMINGTON    PTCLDY    76  66  71 S13       29.96R
CHAMPAIGN      CLOUDY    73  65  75 S15       29.98R
DANVILLE       CLOUDY    73  62  66 S14G21    29.97R
DECATUR        CLOUDY    76  64  66 SW13      29.96R
EFFINGHAM      CLOUDY    72  68  88 SE5       30.01R
FLORA          PTCLDY    73  68  86 S14G20    30.00S
GALESBURG      CLEAR     76  64  67 S8        29.91R
JACKSONVILLE   CLEAR     77  62  59 S8        29.93R
LACON          MOCLDY    76  64  67 S3        29.91R
LAWRENCEVILLE  MOCLDY    72  65  78 S13       30.02R
LITCHFIELD     CLEAR     72  64  76 S15       29.97R
$$


CITY           SKY/WX    TMP DP  RH WIND       PRES   REMARKS
LINCOLN        CLOUDY    77  67  72 S7        29.94R
MACOMB         CLEAR     75  64  68 S6        29.93R
MATTOON        CLOUDY    72  65  78 S8        29.98R
MT CARMEL AP   MOCLDY    72  64  76 SW9       30.02R
OLNEY-NOBLE AP CLOUDY    72  68  88 S10G17    30.01R
PARIS          CLOUDY    72  64  78 S6        30.01R
PEORIA         PTCLDY    77  63  61 S9        29.92R
PONTIAC        CLOUDY    79  66  63 S16       29.95R HX  81
RANTOUL        CLOUDY    76  66  71 S14       29.98R
ROBINSON       MOCLDY    69  66  90 S7        30.01S
SPRINGFIELD    PTCLDY    76  66  71 S13       29.94R
TAYLORVILLE    PTCLDY    74  67  78 S13G20    29.96R
$$

...REGIONAL REPORTS...


CITY           SKY/WX    TMP DP  RH WIND       PRES   REMARKS
CHICAGO O`HARE TSTM      67  65  93 N13       29.94R
KANKAKEE       CLOUDY   N/A N/A N/A S12       29.95R
MOLINE         CLEAR     75  61  61 S3        29.88R
MOUNT STERLING CLEAR     72  63  74 S5        29.91S
MOUNT VERNON   CLOUDY    72  64  78 S8        30.01S
PITTSFIELD     CLEAR     75  66  72 S5        29.94R
QUINCY         CLEAR     77  63  61 S7        29.91R
ROCKFORD       MOCLDY    69  65  86 S5        29.91R
$$


CITY           SKY/WX    TMP DP  RH WIND       PRES   REMARKS
BURLINGTON     CLEAR     74  62  66 S6        29.89R
CEDAR RAPIDS   CLEAR     72  60  66 S6        29.86R
DES MOINES     CLOUDY    76  64  66 S6        29.85S
KIRKSVILLE     CLOUDY    73  64  73 S8        29.91R
OTTUMWA        CLOUDY    75  64  68 SE3       29.87R
ST LOUIS       PTCLDY    79  62  56 S10       29.96R HX  80
$$


CITY           SKY/WX    TMP DP  RH WIND       PRES   REMARKS
TERRE HAUTE    PTCLDY    73  63  70 S10       30.01R
EVANSVILLE     CLOUDY    70  64  81 S14G21    30.03R
INDIANAPOLIS   MOCLDY    74  62  66 S8        30.00R
LAFAYETTE      CLOUDY    74  60  61 S7        29.98R
MADISON        MOCLDY    72  64  76 S15       29.86R
MILWAUKEE      LGT RAIN  54  53  97 E5        29.94R FOG
$$





USA.gov is the U.S. government's official web portal to all federal, state and local government web resources and services.